{"data":{"norad_id":46331,"epoch":"2026-05-24T16:29:56.671008Z","epoch_age_seconds":98441,"freshness":"FRESH","line1":"1 46331U 20062G   26144.68746147  .00107140  00000+0  75823-3 0  9997","line2":"2 46331  53.0376 325.2237 0007205 183.3185 176.7786 15.73161896316751","mean_motion":15.73161896,"eccentricity":0.0007205,"inclination_deg":53.0376,"raan_deg":325.2237,"arg_perigee_deg":183.3185,"mean_anomaly_deg":176.7786,"bstar":0.00075823,"rev_number":31675,"period_min":91.535397829137,"perigee_km":345.01928531161,"apogee_km":354.71433880479,"semimajor_km":6728.0038120582,"source":"CELESTRAK","updated_at":"2026-05-25T13:38:16.470608Z"}}